[[{"header":{"parameterUnit":"m.s-1","parameterCategory":2,"la1":30.2991,"la2":30.254,"lo1":-89.0895,"lo2":-89.0444,"dy":0.0017,"dx":0.0017,"nx":28,"ny":28,"refTime":"2024-10-20T21:00:00:Z","depth":"0","parameterNumber":2,"parameterNumberName":"U-component_of_CURRENTS"},"data":[0,0,0,0,0,0,0,0,0,0,0,0,0,0,0,0,0,0,0,0,0,0,0,0,0,0,0,0,0,0,0,0,0,0,0,0,0,0,0,0,0,0,0,0,0,0,0,0,0,0,0,0,0,0,0,0,0,0,-0.3146,-0.3148,0,-0.3242,-0.3242,-0.3243,-0.3182,-0.318,-0.3178,-0.3176,-0.307,-0.3069,-0.3068,0,0,0,0,0,0,0,0,0,0,0,0,0,-0.2843,-0.2849,-0.3146,-0.3148,-0.315,-0.3242,-0.3242,-0.3243,-0.3183,-0.318,-0.3177,-0.3175,-0.307,-0.3069,-0.3068,0,0,0,0,0,0,0,0,0,0,0,0,0,-0.2954,-0.285,-0.3146,-0.3136,-0.3136,-0.3242,-0.3242,-0.3243,-0.3183,-0.318,-0.3177,-0.3174,-0.307,-0.3069,-0.3068,-0.3129,0,0,-0.3065,-0.3064,0,0,0,0,0,0,0,0,-0.2948,-0.2965,-0.3135,-0.3137,-0.3137,-0.3202,-0.3097,-0.3197,-0.3184,-0.3159,-0.3176,-0.3172,-0.3102,-0.3098,-0.3117,-0.3124,-0.3119,-0.3064,-0.3064,-0.3063,-0.3063,0,0,0,0,0,0,0,-0.294,-0.296,-0.3178,-0.3138,-0.3139,-0.3103,-0.3115,-0.3116,-0.3139,-0.3161,-0.3158,-0.318,-0.31,-0.3119,-0.3114,-0.3117,-0.3065,-0.3064,-0.3063,-0.3062,-0.3127,-0.3129,0,0,0,0,0,0,-0.2951,-0.2954,-0.3175,-0.3181,-0.304,-0.3112,-0.3125,-0.318,-0.3144,-0.3139,-0.3183,-0.3177,-0.3122,-0.3115,-0.311,-0.314,-0.3063,-0.3062,-0.3062,-0.3124,-0.3127,-0.313,0,0,0,0,0,0,-0.2944,-0.2971,-0.3171,-0.3071,-0.3095,-0.3122,-0.3183,-0.3184,-0.319,-0.3164,-0.3152,-0.3187,-0.3119,-0.3111,-0.3117,-0.3136,-0.3062,-0.3061,-0.3121,-0.3125,-0.3128,-0.3225,0,0,0,0,0,0,-0.2936,-0.2969,-0.2996,-0.3074,-0.3102,-0.3235,-0.3187,-0.3188,-0.3212,-0.3205,-0.3165,-0.3152,-0.3116,-0.3119,-0.3116,-0.3133,-0.306,-0.3118,-0.3123,-0.3127,-0.3219,-0.3232,-0.3243,0,0,0,0,0,-0.2925,-0.2988,-0.2998,-0.3023,-0.3146,-0.3238,-0.3248,-0.3249,-0.3216,-0.3236,-0.321,-0.3153,-0.3144,-0.3121,-0.3116,-0.3134,-0.3116,-0.3122,-0.3127,-0.3214,-0.3229,-0.3242,0,0,0,0,0,0,-0.2852,-0.2991,-0.3002,-0.3098,-0.3161,-0.323,-0.3254,-0.3258,-0.326,-0.3243,-0.3192,-0.3181,-0.3193,-0.3163,-0.3139,-0.3168,-0.3118,-0.3123,-0.3185,-0.32,-0.3211,-0.3222,-0.3059,0,0,0,0,0,-0.286,-0.2944,-0.3051,-0.3115,-0.316,-0.3206,-0.3237,-0.3252,-0.3276,-0.3273,-0.3247,-0.3223,-0.3221,-0.3207,-0.3203,-0.3225,-0.3146,-0.3232,-0.3244,-0.3254,-0.3262,-0.3177,-0.318,-0.3147,-0.3147,-0.3147,0,0,-0.2836,-0.293,-0.2967,-0.3105,-0.3153,-0.3239,-0.3214,-0.3284,-0.3328,-0.3262,-0.329,-0.3268,-0.324,-0.3263,-0.3264,-0.3232,-0.3219,-0.3261,-0.3269,-0.3272,-0.3182,-0.3185,-0.3187,-0.3151,-0.315,-0.315,0,0,-0.2866,-0.2934,-0.3026,-0.3102,-0.3212,-0.3252,-0.3275,-0.3356,-0.336,-0.3406,-0.3366,-0.3365,-0.3356,-0.3347,-0.3338,-0.3417,-0.3291,-0.3405,-0.3462,-0.3379,-0.3379,-0.3379,-0.3258,-0.3247,-0.3401,-0.3402,-0.3402,0,-0.2826,-0.2976,-0.3053,-0.317,-0.3228,-0.3263,-0.3355,-0.3389,-0.3446,-0.3447,-0.3419,-0.3413,-0.3399,-0.3413,-0.3452,-0.3441,-0.3351,-0.3406,-0.339,-0.3388,-0.3386,-0.3262,-0.3248,-0.3407,-0.3406,-0.3406,-0.3405,0,-0.2939,-0.3053,-0.3113,-0.3272,-0.3337,-0.3423,-0.3499,-0.3529,-0.3526,-0.3541,-0.3548,-0.3535,-0.3515,-0.3524,-0.3518,-0.3513,-0.3437,-0.3416,-0.3345,-0.3395,-0.3262,-0.3245,-0.3415,-0.3413,-0.3411,-0.341,0,0,-0.2844,-0.3141,-0.3149,-0.3248,-0.3402,-0.3466,-0.3542,-0.3613,-0.3615,-0.3645,-0.3629,-0.3674,-0.3633,-0.3625,-0.3602,-0.3557,-0.3483,-0.3492,-0.3485,-0.3356,-0.325,-0.3202,-0.3177,-0.3438,-0.3437,-0.3436,-0.3152,0,-0.2894,-0.3144,-0.3256,-0.3414,-0.3542,-0.3597,-0.3649,-0.37,-0.3699,-0.3685,-0.3671,-0.3654,-0.3678,-0.3649,-0.3621,-0.3503,-0.3448,-0.356,-0.3236,-0.3227,-0.3164,-0.3161,-0.3049,-0.2788,-0.3135,-0.3132,-0.313,0,-0.2945,-0.3122,-0.3327,-0.352,-0.3564,-0.3632,-0.3683,-0.3742,-0.3739,-0.3727,-0.3711,-0.3668,-0.3635,-0.3633,-0.3463,-0.3517,-0.3415,-0.3326,-0.3311,-0.3224,-0.3149,-0.2801,-0.2743,-0.274,-0.3103,-0.3105,-0.3107,0,-0.2856,-0.3133,-0.3299,-0.3377,-0.3601,-0.3641,-0.3705,-0.3736,-0.3725,-0.3734,-0.3659,-0.3646,-0.3544,-0.3465,-0.3331,-0.3366,-0.3096,-0.3103,-0.2961,-0.2952,-0.2777,-0.2757,-0.2666,-0.2992,-0.2992,-0.2993,-0.2994,0,-0.2868,-0.2977,-0.3275,-0.3366,-0.3474,-0.3619,-0.3643,-0.3701,-0.3685,-0.3603,-0.3658,-0.3546,-0.349,-0.3337,-0.3274,-0.3047,-0.3038,-0.296,-0.2884,-0.2808,-0.2796,-0.2722,-0.2765,-0.2982,-0.2985,-0.2987,-0.2989,0,-0.2742,-0.2952,-0.3149,-0.3403,-0.3457,-0.3523,-0.3598,-0.3569,-0.3594,-0.3468,-0.3449,-0.339,-0.3211,-0.3139,-0.295,-0.2901,-0.2694,-0.2687,-0.2597,-0.252,-0.2421,-0.2473,-0.2284,-0.2216,-0.2457,-0.2455,-0.2452,0,-0.2704,-0.2813,-0.3129,-0.3198,-0.3309,-0.3412,-0.3417,-0.3508,-0.3426,-0.3337,-0.3208,-0.3078,-0.2925,-0.2677,-0.2606,-0.2456,-0.2514,-0.2284,-0.2384,-0.2396,-0.2396,-0.2449,-0.241,-0.2151,-0.2147,-0.2143,-0.214,0,-0.2595,-0.272,-0.2891,-0.3066,-0.3132,-0.3162,-0.3167,-0.3097,-0.3097,-0.302,-0.2837,-0.2745,-0.2544,-0.2374,-0.2259,-0.218,-0.2252,-0.2203,-0.2218,-0.2167,-0.2207,-0.2109,-0.2348,-0.2107,-0.211,-0.2112,-0.2114,-0.2116,-0.2448,-0.2551,-0.2768,-0.2902,-0.2934,-0.2835,-0.275,-0.2732,-0.2619,-0.2432,-0.247,-0.2315,-0.2229,-0.2065,-0.1988,-0.1881,-0.1967,-0.1849,-0.1902,-0.1948,-0.1936,-0.2116,-0.1818,-0.1819,-0.1821,-0.1822,-0.1823,0,-0.2274,-0.2423,-0.2556,-0.2653,-0.253,-0.2629,-0.2492,-0.2354,-0.2175,-0.2128,-0.202,-0.194,-0.181,-0.1779,-0.1698,-0.162,-0.1596,-0.16,-0.1646,-0.1614,-0.173,-0.1778,-0.1455,-0.1455,-0.1455,-0.1455,-0.1455,-0.1455,-0.2189,-0.2288,-0.242,-0.2241,-0.2205,-0.1939,-0.1808,-0.1715,-0.1639,-0.1529,-0.1511,-0.1483,-0.1553,-0.1713,-0.162,-0.1535,-0.1524,-0.1464,-0.1514,-0.163,-0.1659,-0.1687,-0.1743,-0.1418,-0.1418,-0.1322,-0.1322,-0.1321]},{"header":{"parameterUnit":"m.s-1","parameterCategory":2,"la1":30.2991,"la2":30.254,"lo1":-89.0895,"lo2":-89.0444,"dy":0.0017,"dx":0.0017,"nx":28,"ny":28,"refTime":"2024-10-20T21:00:00:Z","depth":"0","parameterNumber":3,"parameterNumberName":"V-component_of_CURRENTS"},"data":[0,0,0,0,0,0,0,0,0,0,0,0,0,0,0,0,0,0,0,0,0,0,0,0,0,0,0,0,0,0,0,0,0,0,0,0,0,0,0,0,0,0,0,0,0,0,0,0,0,0,0,0,0,0,0,0,0,0,-0.0527,-0.0526,0,-0.0388,-0.0386,-0.0385,-0.031,-0.031,-0.031,-0.031,-0.0171,-0.0168,-0.0164,0,0,0,0,0,0,0,0,0,0,0,0,0,-0.0622,-0.0621,-0.0527,-0.0526,-0.0524,-0.0388,-0.0386,-0.0384,-0.031,-0.031,-0.031,-0.031,-0.0172,-0.0168,-0.0164,0,0,0,0,0,0,0,0,0,0,0,0,0,-0.0541,-0.0621,-0.0528,-0.0471,-0.0465,-0.0389,-0.0386,-0.0384,-0.031,-0.031,-0.031,-0.031,-0.0174,-0.0168,-0.0163,-0.0132,0,0,-0.0147,-0.0144,0,0,0,0,0,0,0,0,-0.0546,-0.0538,-0.0481,-0.0475,-0.0468,-0.0367,-0.0368,-0.03,-0.031,-0.0368,-0.031,-0.031,-0.0237,-0.0226,-0.02,-0.0126,-0.012,-0.0146,-0.0143,-0.014,-0.0139,0,0,0,0,0,0,0,-0.0552,-0.0543,-0.0471,-0.0479,-0.0471,-0.0416,-0.0405,-0.0354,-0.0305,-0.0363,-0.0358,-0.0343,-0.0233,-0.0205,-0.0196,-0.0118,-0.0146,-0.0141,-0.0138,-0.0136,0.0023,0.0024,0,0,0,0,0,0,-0.0576,-0.0549,-0.0476,-0.0467,-0.0508,-0.0415,-0.0403,-0.0399,-0.0305,-0.0291,-0.0343,-0.034,-0.0214,-0.0202,-0.0191,-0.0154,-0.0141,-0.0135,-0.0132,0.0022,0.0023,0.0024,0,0,0,0,0,0,-0.0579,-0.0571,-0.0481,-0.0504,-0.0489,-0.0414,-0.041,-0.0396,-0.0369,-0.029,-0.0276,-0.0331,-0.0214,-0.0198,-0.0138,-0.0148,-0.0133,-0.0128,0.0021,0.0022,0.0024,-0.0078,0,0,0,0,0,0,-0.0582,-0.0573,-0.0585,-0.0507,-0.0489,-0.0451,-0.0409,-0.0393,-0.0361,-0.0355,-0.0275,-0.0262,-0.0212,-0.0146,-0.0133,-0.014,-0.0124,0.002,0.0021,0.0023,-0.0076,-0.008,-0.0083,0,0,0,0,0,-0.0586,-0.0615,-0.0587,-0.0578,-0.0506,-0.0451,-0.0437,-0.0382,-0.0361,-0.0356,-0.0289,-0.0264,-0.0125,-0.0141,-0.0125,-0.0132,0.0019,0.0021,0.0023,-0.0074,-0.0079,-0.0083,0,0,0,0,0,0,-0.0674,-0.0608,-0.0576,-0.0586,-0.0525,-0.0439,-0.0437,-0.0389,-0.0331,-0.0329,-0.0251,-0.0232,-0.0182,-0.0135,-0.0155,-0.0076,-0.0049,-0.0044,-0.0128,-0.0132,-0.0136,-0.0165,-0.0119,0,0,0,0,0,-0.0696,-0.0695,-0.0614,-0.0623,-0.0598,-0.0515,-0.0489,-0.0445,-0.038,-0.0355,-0.0292,-0.0222,-0.0159,-0.0131,-0.0069,-0.003,0.0024,-0.002,-0.0024,-0.0028,-0.0037,0.0045,0.0046,0.0031,0.0031,0.0031,0,0,-0.0734,-0.0697,-0.0698,-0.064,-0.0592,-0.0565,-0.05,-0.0468,-0.0442,-0.035,-0.0306,-0.0235,-0.0149,-0.0101,-0.0075,-0.0066,0.0007,-0.0025,-0.003,-0.0036,0.0047,0.0048,0.0049,0.0033,0.0033,0.0032,0,0,-0.081,-0.0774,-0.0794,-0.0743,-0.0676,-0.0617,-0.0611,-0.0523,-0.0484,-0.0425,-0.0349,-0.0282,-0.0193,-0.0129,-0.0086,-0.0073,-0.0015,-0.0054,-0.0104,-0.0025,-0.0024,-0.0023,0.0045,0.0053,-0.006,-0.006,-0.006,0,-0.0862,-0.0863,-0.0792,-0.0784,-0.0754,-0.0647,-0.0648,-0.0587,-0.0488,-0.0456,-0.0429,-0.0272,-0.0207,-0.0133,-0.0128,-0.0086,-0.0033,-0.0102,-0.0034,-0.0031,-0.0028,0.0041,0.0052,-0.0065,-0.0064,-0.0064,-0.0063,0,-0.0938,-0.0925,-0.0933,-0.0884,-0.0843,-0.0825,-0.0727,-0.0683,-0.0619,-0.0549,-0.0463,-0.0354,-0.0268,-0.0229,-0.0177,-0.0117,-0.0084,-0.0051,-0.0035,-0.0034,0.004,0.0053,-0.0071,-0.007,-0.0068,-0.0067,0,0,-0.1077,-0.1005,-0.1003,-0.0988,-0.0891,-0.0868,-0.0821,-0.0746,-0.071,-0.0611,-0.0562,-0.0443,-0.0379,-0.0324,-0.0239,-0.0165,-0.0096,-0.011,-0.0104,-0.0066,0.0072,0.0122,0.0141,-0.0054,-0.0052,-0.0051,0.0112,0,-0.1154,-0.1175,-0.1104,-0.1102,-0.1098,-0.098,-0.0941,-0.0856,-0.0762,-0.0685,-0.0563,-0.0477,-0.0415,-0.0365,-0.0291,-0.0124,-0.0066,-0.0144,0.0086,0.0093,0.0118,0.0156,0.0211,0.0364,0.0125,0.0127,0.0129,0,-0.1249,-0.1239,-0.1268,-0.1198,-0.1186,-0.1165,-0.1076,-0.1026,-0.0884,-0.081,-0.0708,-0.0586,-0.0454,-0.0405,-0.0168,-0.0219,-0.0102,0.0019,0.0029,0.0117,0.0166,0.033,0.0397,0.0564,0.0149,0.0148,0.0146,0,-0.1388,-0.135,-0.1381,-0.1357,-0.1266,-0.1256,-0.1208,-0.1079,-0.1012,-0.0884,-0.0797,-0.0648,-0.0526,-0.0372,-0.0126,-0.0143,0.0141,0.0151,0.0299,0.0304,0.0418,0.043,0.0656,0.0285,0.0284,0.0284,0.0283,0,-0.1499,-0.1512,-0.145,-0.1461,-0.148,-0.1379,-0.1357,-0.1283,-0.1137,-0.1029,-0.0879,-0.0739,-0.0505,-0.0297,-0.0137,0.0136,0.0131,0.03,0.0355,0.0386,0.0392,0.0597,0.0647,0.029,0.0289,0.0287,0.0286,0,-0.164,-0.1602,-0.1624,-0.1562,-0.1549,-0.157,-0.1456,-0.1402,-0.126,-0.1107,-0.1054,-0.0778,-0.05,-0.0263,0.0035,0.0163,0.0507,0.0469,0.0483,0.0537,0.0806,0.0847,0.1121,0.1226,0.0656,0.0658,0.066,0,-0.171,-0.1744,-0.1727,-0.1736,-0.1711,-0.1698,-0.1655,-0.151,-0.1396,-0.11,-0.1003,-0.0708,-0.0459,-0.0026,0.0243,0.0527,0.0639,0.0729,0.0699,0.0842,0.093,0.0957,0.1026,0.0818,0.0821,0.0823,0.0825,0,-0.1826,-0.1829,-0.1842,-0.1875,-0.186,-0.1791,-0.1695,-0.1618,-0.1377,-0.1203,-0.0894,-0.0683,-0.0249,0.0128,0.0478,0.0643,0.0863,0.0788,0.0955,0.1091,0.112,0.124,0.0674,0.0848,0.0845,0.0844,0.0843,0.0842,-0.19,-0.1952,-0.1971,-0.1999,-0.1947,-0.1814,-0.1736,-0.1559,-0.1359,-0.0957,-0.0824,-0.0393,0.0041,0.0558,0.0736,0.1129,0.1068,0.1247,0.1291,0.1309,0.1399,0.0867,0.1084,0.1083,0.1082,0.1082,0.1081,0,-0.1978,-0.2028,-0.2073,-0.2028,-0.1922,-0.1878,-0.1686,-0.153,-0.1263,-0.0834,-0.0525,0.0098,0.0538,0.0943,0.1419,0.1628,0.1664,0.1727,0.1792,0.1843,0.141,0.1405,0.168,0.168,0.168,0.168,0.1679,0.1679,-0.2017,-0.2107,-0.2136,-0.2001,-0.1905,-0.1695,-0.1562,-0.1346,-0.1028,-0.0414,0.0099,0.0481,0.0958,0.1614,0.2058,0.2095,0.2277,0.2252,0.2343,0.2047,0.2005,0.1965,0.1977,0.2366,0.2367,0.278,0.2784,0.2787]}],[{"header":{"parameterUnit":"m.s-1","parameterCategory":2,"la1":30.2991,"la2":30.254,"lo1":-89.0895,"lo2":-89.0444,"dy":0.0017,"dx":0.0017,"nx":28,"ny":28,"refTime":"2024-10-20T21:00:00:Z","depth":"2","parameterNumber":2,"parameterNumberName":"U-component_of_CURRENTS"},"data":[0,0,0,0,0,0,0,0,0,0,0,0,0,0,0,0,0,0,0,0,0,0,0,0,0,0,0,0,0,0,0,0,0,0,0,0,0,0,0,0,0,0,0,0,0,0,0,0,0,0,0,0,0,0,0,0,0,0,-0.2415,-0.2415,0,-0.2423,-0.2422,-0.2422,-0.2422,-0.2422,-0.2422,-0.2423,-0.2483,-0.2484,-0.2485,0,0,0,0,0,0,0,0,0,0,0,0,0,-0.2409,-0.2409,-0.2415,-0.2415,-0.2416,-0.2423,-0.2422,-0.2422,-0.2421,-0.2422,-0.2422,-0.2423,-0.2483,-0.2484,-0.2486,0,0,0,0,0,0,0,0,0,0,0,0,0,-0.2408,-0.2409,-0.2415,-0.2421,-0.2422,-0.2423,-0.2422,-0.2422,-0.2421,-0.2422,-0.2423,-0.2423,-0.2482,-0.2484,-0.2486,-0.2484,0,0,-0.2491,-0.2492,0,0,0,0,0,0,0,0,-0.2408,-0.2408,-0.2419,-0.2421,-0.2422,-0.2427,-0.2443,-0.2447,-0.2421,-0.2415,-0.2423,-0.2424,-0.2472,-0.2475,-0.2466,-0.2487,-0.249,-0.2491,-0.2493,-0.2493,-0.2494,0,0,0,0,0,0,0,-0.2408,-0.2408,-0.2412,-0.242,-0.2422,-0.2427,-0.2427,-0.2443,-0.2437,-0.2416,-0.2417,-0.2427,-0.2473,-0.2464,-0.2468,-0.2491,-0.2491,-0.2493,-0.2494,-0.2495,-0.2592,-0.2593,0,0,0,0,0,0,-0.2418,-0.2407,-0.2412,-0.2413,-0.2423,-0.2427,-0.2427,-0.242,-0.2436,-0.244,-0.2427,-0.2427,-0.2461,-0.2466,-0.247,-0.2552,-0.2493,-0.2495,-0.2496,-0.2591,-0.2592,-0.2594,0,0,0,0,0,0,-0.2417,-0.2417,-0.2412,-0.2416,-0.2417,-0.2427,-0.2419,-0.242,-0.2456,-0.2444,-0.2448,-0.2468,-0.2462,-0.2468,-0.2518,-0.2551,-0.2496,-0.2498,-0.2589,-0.2591,-0.2593,-0.2663,0,0,0,0,0,0,-0.2417,-0.2416,-0.2404,-0.2416,-0.2417,-0.2421,-0.2419,-0.242,-0.2461,-0.2463,-0.248,-0.2484,-0.2463,-0.2516,-0.252,-0.2553,-0.2499,-0.2587,-0.259,-0.2592,-0.2659,-0.2667,-0.2675,0,0,0,0,0,-0.2416,-0.2404,-0.2403,-0.2404,-0.2402,-0.2422,-0.2422,-0.2428,-0.2463,-0.2467,-0.2498,-0.2485,-0.2536,-0.2519,-0.2523,-0.2557,-0.2586,-0.2589,-0.2592,-0.2655,-0.2666,-0.2674,0,0,0,0,0,0,-0.2437,-0.2403,-0.2403,-0.2392,-0.2411,-0.2425,-0.2433,-0.2461,-0.2487,-0.2494,-0.251,-0.2514,-0.2554,-0.2558,-0.2539,-0.2593,-0.2557,-0.2562,-0.2603,-0.2613,-0.2621,-0.258,-0.25,0,0,0,0,0,-0.2426,-0.24,-0.2395,-0.2409,-0.2406,-0.2434,-0.2447,-0.2451,-0.2482,-0.2495,-0.2525,-0.2549,-0.2564,-0.2595,-0.2585,-0.2641,-0.2597,-0.2664,-0.2672,-0.2678,-0.2648,-0.2626,-0.2628,-0.2605,-0.2605,-0.2605,0,0,-0.2455,-0.2434,-0.2427,-0.241,-0.2425,-0.243,-0.2443,-0.2464,-0.2498,-0.2498,-0.2566,-0.2568,-0.2578,-0.261,-0.2633,-0.2631,-0.2666,-0.2683,-0.2688,-0.2654,-0.263,-0.2631,-0.2633,-0.2607,-0.2607,-0.2606,0,0,-0.2484,-0.2469,-0.2435,-0.2439,-0.2439,-0.245,-0.2473,-0.2496,-0.2524,-0.2573,-0.2581,-0.2606,-0.2659,-0.2657,-0.2669,-0.2724,-0.2689,-0.2748,-0.2782,-0.2763,-0.2763,-0.2763,-0.2721,-0.2717,-0.2777,-0.2777,-0.2777,0,-0.2486,-0.2474,-0.2447,-0.2426,-0.2435,-0.2474,-0.247,-0.2511,-0.2563,-0.2581,-0.2597,-0.2652,-0.2663,-0.2707,-0.2722,-0.2738,-0.2719,-0.2748,-0.277,-0.277,-0.2768,-0.2724,-0.2719,-0.2781,-0.278,-0.278,-0.278,0,-0.2493,-0.2484,-0.2489,-0.246,-0.2462,-0.2481,-0.2508,-0.2556,-0.2606,-0.2622,-0.267,-0.2688,-0.2709,-0.2742,-0.2752,-0.2775,-0.276,-0.2763,-0.2741,-0.2774,-0.2727,-0.272,-0.2786,-0.2785,-0.2784,-0.2783,0,0,-0.2483,-0.2469,-0.2484,-0.2459,-0.2473,-0.2472,-0.2543,-0.2574,-0.2624,-0.2668,-0.2714,-0.2747,-0.2743,-0.2754,-0.2787,-0.2798,-0.2783,-0.2794,-0.2792,-0.2741,-0.2731,-0.2663,-0.2647,-0.2807,-0.2806,-0.2806,-0.2704,0,-0.2491,-0.2439,-0.2459,-0.2471,-0.2427,-0.2487,-0.255,-0.2585,-0.2637,-0.2696,-0.2721,-0.2757,-0.2762,-0.2787,-0.2791,-0.2783,-0.2766,-0.2808,-0.2713,-0.2709,-0.2636,-0.2637,-0.2453,-0.2342,-0.2697,-0.2695,-0.2694,0,-0.2477,-0.2434,-0.2396,-0.2411,-0.2409,-0.2446,-0.2511,-0.2569,-0.2654,-0.269,-0.2723,-0.275,-0.2776,-0.2779,-0.2745,-0.2781,-0.274,-0.2731,-0.2727,-0.2621,-0.2625,-0.2365,-0.2315,-0.2681,-0.2682,-0.2683,-0.2684,0,-0.2402,-0.241,-0.237,-0.237,-0.2385,-0.2419,-0.2472,-0.2547,-0.2604,-0.2683,-0.2713,-0.274,-0.2753,-0.2728,-0.2703,-0.2729,-0.2651,-0.2676,-0.2563,-0.2557,-0.2352,-0.233,-0.2608,-0.2608,-0.2608,-0.2608,-0.2608,0,-0.2342,-0.2322,-0.2339,-0.23,-0.2314,-0.2346,-0.2405,-0.2475,-0.2574,-0.2608,-0.269,-0.2716,-0.2742,-0.272,-0.269,-0.259,-0.2621,-0.2535,-0.252,-0.2374,-0.2357,-0.2613,-0.2615,-0.2604,-0.2605,-0.2606,-0.2607,0,-0.2211,-0.2234,-0.2188,-0.2222,-0.2251,-0.2247,-0.2372,-0.2418,-0.252,-0.2575,-0.2602,-0.2681,-0.2641,-0.2646,-0.2593,-0.2548,-0.2485,-0.2434,-0.2253,-0.2219,-0.2406,-0.2413,-0.2292,-0.2289,-0.2286,-0.2284,-0.2282,0,-0.2124,-0.2076,-0.211,-0.2116,-0.2133,-0.2174,-0.2225,-0.2363,-0.2418,-0.2534,-0.2544,-0.2561,-0.2517,-0.2429,-0.2365,-0.2271,-0.2368,-0.2063,-0.2068,-0.2372,-0.237,-0.2382,-0.2393,-0.1824,-0.1819,-0.1814,-0.181,0,-0.1941,-0.1975,-0.1938,-0.1959,-0.2004,-0.2061,-0.2146,-0.2189,-0.2335,-0.2372,-0.2386,-0.2362,-0.2295,-0.2121,-0.2041,-0.1975,-0.2075,-0.1967,-0.2304,-0.1952,-0.1927,-0.1928,-0.1954,-0.177,-0.1774,-0.1777,-0.1779,-0.1781,-0.1841,-0.1789,-0.1782,-0.1798,-0.1858,-0.1916,-0.1916,-0.2013,-0.2055,-0.2071,-0.2149,-0.2037,-0.2024,-0.1788,-0.1698,-0.1645,-0.1789,-0.1721,-0.1736,-0.1756,-0.1739,-0.1712,-0.1509,-0.1512,-0.1514,-0.1516,-0.1518,0,-0.1673,-0.1643,-0.1637,-0.1654,-0.1669,-0.1759,-0.1832,-0.1803,-0.1769,-0.1797,-0.1762,-0.1569,-0.1449,-0.1447,-0.1291,-0.1274,-0.1272,-0.1232,-0.1229,-0.1269,-0.1305,-0.1267,-0.0911,-0.0909,-0.0908,-0.0906,0,0,-0.1602,-0.1492,-0.1482,-0.1449,-0.1484,-0.145,-0.1454,-0.1417,-0.1405,-0.1308,-0.1248,-0.1337,-0.1371,-0.1134,-0.109,-0.0968,-0.1105,-0.0918,-0.1399,-0.1432,-0.1465,-0.1577,-0.1562,0,0,0,0,0]},{"header":{"parameterUnit":"m.s-1","parameterCategory":2,"la1":30.2991,"la2":30.254,"lo1":-89.0895,"lo2":-89.0444,"dy":0.0017,"dx":0.0017,"nx":28,"ny":28,"refTime":"2024-10-20T21:00:00:Z","depth":"2","parameterNumber":3,"parameterNumberName":"V-component_of_CURRENTS"},"data":[0,0,0,0,0,0,0,0,0,0,0,0,0,0,0,0,0,0,0,0,0,0,0,0,0,0,0,0,0,0,0,0,0,0,0,0,0,0,0,0,0,0,0,0,0,0,0,0,0,0,0,0,0,0,0,0,0,0,-0.0106,-0.0105,0,-0.0037,-0.0037,-0.0036,0.0027,0.0028,0.0029,0.0029,0.0197,0.0201,0.0205,0,0,0,0,0,0,0,0,0,0,0,0,0,-0.0109,-0.0109,-0.0106,-0.0105,-0.0104,-0.0038,-0.0037,-0.0036,0.0027,0.0028,0.0029,0.003,0.0196,0.0201,0.0205,0,0,0,0,0,0,0,0,0,0,0,0,0,-0.0081,-0.011,-0.0106,-0.0065,-0.006,-0.0038,-0.0037,-0.0035,0.0027,0.0028,0.0029,0.003,0.0195,0.02,0.0206,0.0217,0,0,0.0223,0.0225,0,0,0,0,0,0,0,0,-0.0083,-0.0081,-0.0071,-0.0067,-0.0062,-0.0012,0.0024,0.0054,0.0027,-0.0006,0.003,0.0031,0.0136,0.0146,0.0155,0.0225,0.0232,0.0223,0.0227,0.0229,0.0231,0,0,0,0,0,0,0,-0.0085,-0.0083,-0.0079,-0.0071,-0.0065,-0.0024,-0.002,0.003,0.0059,-0.0003,0.0001,0.0009,0.0139,0.0149,0.016,0.0234,0.0223,0.0228,0.0232,0.0234,0.0356,0.0356,0,0,0,0,0,0,-0.0098,-0.0086,-0.0081,-0.0077,-0.007,-0.0026,-0.002,-0.003,0.0056,0.007,0.0008,0.0012,0.0139,0.0153,0.0166,0.0214,0.0229,0.0234,0.0238,0.0356,0.0356,0.0356,0,0,0,0,0,0,-0.0099,-0.0099,-0.0084,-0.0078,-0.0073,-0.0027,-0.0038,-0.0029,-0.0001,0.0064,0.008,0.0028,0.014,0.0158,0.0213,0.022,0.0237,0.0242,0.0356,0.0356,0.0356,0.0291,0,0,0,0,0,0,-0.01,-0.0101,-0.0115,-0.008,-0.0074,-0.0077,-0.0039,-0.0028,0.0,0.0007,0.0087,0.0102,0.0143,0.0204,0.0218,0.0228,0.0246,0.0357,0.0356,0.0356,0.0293,0.0289,0.0285,0,0,0,0,0,-0.01,-0.0127,-0.0117,-0.0116,-0.0095,-0.0077,-0.0071,-0.0033,0.0,-0.0,0.0058,0.0101,0.0213,0.0208,0.0225,0.0237,0.0357,0.0356,0.0356,0.0295,0.029,0.0285,0,0,0,0,0,0,-0.0123,-0.0122,-0.011,-0.0131,-0.0108,-0.0067,-0.0064,-0.0029,0.0016,0.0026,0.0101,0.0119,0.0165,0.021,0.0203,0.027,0.0292,0.0295,0.024,0.0235,0.0231,0.0198,0.0251,0,0,0,0,0,-0.014,-0.0161,-0.0141,-0.015,-0.0147,-0.0101,-0.0087,-0.0063,-0.0018,0.0003,0.0063,0.0124,0.0173,0.0211,0.0252,0.0297,0.033,0.0314,0.031,0.0306,0.029,0.0334,0.0332,0.0355,0.0355,0.0355,0,0,-0.0146,-0.0148,-0.0157,-0.0156,-0.0135,-0.0139,-0.009,-0.0076,-0.0063,0.0015,0.0056,0.0108,0.0178,0.0216,0.0243,0.0261,0.032,0.0306,0.0302,0.0288,0.0333,0.0331,0.0329,0.0355,0.0355,0.0355,0,0,-0.0179,-0.0176,-0.0212,-0.02,-0.0185,-0.0161,-0.0156,-0.0117,-0.0086,-0.0049,0.0011,0.0061,0.0144,0.0188,0.0225,0.0224,0.0287,0.025,0.0217,0.0259,0.0257,0.0256,0.0307,0.0311,0.0259,0.0259,0.0259,0,-0.0192,-0.0229,-0.0213,-0.0236,-0.0228,-0.0173,-0.0193,-0.0158,-0.0099,-0.0073,-0.0047,0.0066,0.0124,0.0182,0.0178,0.0213,0.0253,0.0231,0.0252,0.0252,0.0252,0.0304,0.0309,0.0256,0.0256,0.0257,0.0257,0,-0.0253,-0.0272,-0.0284,-0.0302,-0.0293,-0.0296,-0.0255,-0.023,-0.018,-0.0139,-0.0077,-0.0003,0.0064,0.0097,0.014,0.0177,0.021,0.0232,0.0261,0.0245,0.0302,0.0308,0.0252,0.0253,0.0254,0.0254,0,0,-0.0314,-0.0332,-0.0336,-0.0348,-0.0329,-0.0328,-0.0307,-0.0277,-0.0254,-0.0189,-0.0154,-0.007,-0.0022,0.002,0.009,0.0134,0.0171,0.0181,0.0185,0.0222,0.0277,0.0316,0.0328,0.0203,0.0203,0.0204,0.0321,0,-0.0368,-0.043,-0.0419,-0.0447,-0.0469,-0.0414,-0.0399,-0.0357,-0.03,-0.0252,-0.0161,-0.0109,-0.0048,-0.0014,0.0037,0.0138,0.0183,0.0138,0.0294,0.0298,0.0328,0.0334,0.0302,0.0405,0.0328,0.0329,0.033,0,-0.0445,-0.047,-0.0524,-0.0521,-0.0526,-0.053,-0.0495,-0.0472,-0.0388,-0.0343,-0.027,-0.0193,-0.0106,-0.0065,0.0091,0.0064,0.0154,0.0229,0.0236,0.0294,0.0348,0.0408,0.042,0.0341,0.034,0.0339,0.0338,0,-0.0512,-0.0542,-0.0586,-0.0585,-0.0578,-0.058,-0.0566,-0.0503,-0.0485,-0.0398,-0.0373,-0.0253,-0.0187,-0.007,0.0099,0.0095,0.0269,0.0286,0.0405,0.041,0.0422,0.0427,0.0371,0.0371,0.0371,0.0371,0.037,0,-0.0582,-0.0611,-0.062,-0.0643,-0.0678,-0.0645,-0.0661,-0.0619,-0.0568,-0.0539,-0.0426,-0.0366,-0.0187,-0.0053,0.0082,0.0274,0.0261,0.0395,0.044,0.0401,0.0403,0.0373,0.0372,0.0375,0.0374,0.0373,0.0372,0,-0.0648,-0.0657,-0.0703,-0.0712,-0.0717,-0.0739,-0.0738,-0.0744,-0.0677,-0.0636,-0.0613,-0.0447,-0.0258,-0.0073,0.0142,0.026,0.0429,0.0496,0.0446,0.0481,0.0544,0.0538,0.0632,0.0634,0.0636,0.0638,0.0639,0,-0.0689,-0.0726,-0.0762,-0.0796,-0.0803,-0.0829,-0.0851,-0.0807,-0.0803,-0.0669,-0.0653,-0.0463,-0.0298,0.0034,0.026,0.0503,0.0497,0.0606,0.0582,0.0536,0.057,0.0561,0.0552,0.0583,0.0584,0.0584,0.0585,0,-0.0755,-0.0769,-0.0802,-0.0877,-0.0918,-0.096,-0.0976,-0.0985,-0.0906,-0.0824,-0.0667,-0.0518,-0.0193,0.0089,0.0389,0.0522,0.0563,0.0628,0.0601,0.0517,0.0498,0.0528,0.052,0.0591,0.059,0.059,0.0589,0.0589,-0.0791,-0.0831,-0.0883,-0.095,-0.101,-0.1067,-0.1085,-0.1056,-0.1002,-0.0836,-0.0682,-0.0404,-0.0167,0.0287,0.0478,0.0651,0.0651,0.0694,0.0689,0.0683,0.0651,0.0636,0.075,0.075,0.0751,0.0751,0.0751,0,-0.0818,-0.0877,-0.0954,-0.1037,-0.1123,-0.1131,-0.1153,-0.1118,-0.1017,-0.0818,-0.0608,-0.0267,0.0044,0.0285,0.0567,0.073,0.0699,0.0747,0.0672,0.0666,0.0661,0.0624,0.0718,0.0718,0.0718,0.0719,0,0,-0.0837,-0.0915,-0.0961,-0.111,-0.1178,-0.1242,-0.1244,-0.1129,-0.0984,-0.0733,-0.0499,-0.0227,0.0068,0.0262,0.0452,0.0591,0.0578,0.0598,0.0608,0.0488,0.048,0.0618,0.0554,0,0,0,0,0]}],[{"header":{"parameterUnit":"m.s-1","parameterCategory":2,"la1":30.2991,"la2":30.254,"lo1":-89.0895,"lo2":-89.0444,"dy":0.0017,"dx":0.0017,"nx":28,"ny":28,"refTime":"2024-10-20T21:00:00:Z","depth":"4","parameterNumber":2,"parameterNumberName":"U-component_of_CURRENTS"},"data":[0,0,0,0,0,0,0,0,0,0,0,0,0,0,0,0,0,0,0,0,0,0,0,0,0,0,0,0,0,0,0,0,0,0,0,0,0,0,0,0,0,0,0,0,0,0,0,0,0,0,0,0,0,0,0,0,0,0,-0.124,-0.1241,0,-0.1322,-0.1323,-0.1324,-0.1358,-0.1358,-0.1358,-0.1357,-0.1432,-0.1434,-0.1436,0,0,0,0,0,0,0,0,0,0,0,0,0,-0.1117,-0.1119,-0.124,-0.1241,-0.1242,-0.1322,-0.1323,-0.1324,-0.1358,-0.1358,-0.1358,-0.1357,-0.1431,-0.1433,-0.1436,0,0,0,0,0,0,0,0,0,0,0,0,0,-0.1182,-0.1119,-0.124,-0.1268,-0.1272,-0.1321,-0.1323,-0.1324,-0.1358,-0.1358,-0.1357,-0.1357,-0.143,-0.1433,-0.1436,-0.1462,0,0,-0.1446,-0.1447,0,0,0,0,0,0,0,0,-0.1178,-0.1186,-0.1263,-0.1266,-0.127,-0.1329,-0.1307,-0.137,-0.1358,-0.1325,-0.1357,-0.1357,-0.1397,-0.1403,-0.1419,-0.1465,-0.1468,-0.1446,-0.1448,-0.145,-0.1451,0,0,0,0,0,0,0,-0.1173,-0.1183,-0.1272,-0.1264,-0.1269,-0.1278,-0.1287,-0.1319,-0.1362,-0.1328,-0.1331,-0.134,-0.1399,-0.1416,-0.1421,-0.1469,-0.1446,-0.1449,-0.1451,-0.1452,-0.1598,-0.16,0,0,0,0,0,0,-0.1164,-0.1179,-0.127,-0.1275,-0.1222,-0.1281,-0.1291,-0.1311,-0.1361,-0.1369,-0.134,-0.1341,-0.141,-0.1417,-0.1424,-0.1506,-0.145,-0.1453,-0.1455,-0.1596,-0.1599,-0.1601,0,0,0,0,0,0,-0.1161,-0.1171,-0.1267,-0.1228,-0.124,-0.1283,-0.1305,-0.1312,-0.1351,-0.137,-0.1378,-0.1374,-0.1411,-0.1419,-0.1473,-0.1507,-0.1454,-0.1457,-0.1594,-0.1597,-0.16,-0.1638,0,0,0,0,0,0,-0.1157,-0.117,-0.1189,-0.1227,-0.1242,-0.131,-0.1306,-0.1314,-0.1356,-0.1359,-0.1402,-0.1407,-0.1411,-0.1469,-0.1477,-0.151,-0.146,-0.1592,-0.1595,-0.1599,-0.1634,-0.1642,-0.1648,0,0,0,0,0,-0.1153,-0.1173,-0.1189,-0.1201,-0.1265,-0.1311,-0.132,-0.1349,-0.1358,-0.1382,-0.1412,-0.1407,-0.1497,-0.1473,-0.1482,-0.1517,-0.159,-0.1594,-0.1599,-0.1631,-0.164,-0.1648,0,0,0,0,0,0,-0.1128,-0.118,-0.1198,-0.1234,-0.1277,-0.1317,-0.1343,-0.1365,-0.1409,-0.1418,-0.1433,-0.1441,-0.15,-0.1509,-0.1481,-0.1571,-0.1543,-0.1549,-0.1565,-0.1573,-0.158,-0.1591,-0.1462,0,0,0,0,0,-0.1133,-0.1162,-0.1213,-0.1243,-0.1269,-0.1313,-0.1338,-0.1363,-0.1402,-0.1423,-0.1452,-0.1487,-0.1524,-0.1547,-0.1578,-0.163,-0.1631,-0.166,-0.1667,-0.1672,-0.1689,-0.1721,-0.1732,-0.1615,-0.1615,-0.1615,0,0,-0.1129,-0.1162,-0.1179,-0.124,-0.1277,-0.1327,-0.1329,-0.1378,-0.1424,-0.1424,-0.1495,-0.1515,-0.1544,-0.1599,-0.1626,-0.1611,-0.1704,-0.1678,-0.1683,-0.1696,-0.1726,-0.1738,-0.1747,-0.1618,-0.1618,-0.1617,0,0,-0.1136,-0.1174,-0.1206,-0.1252,-0.1315,-0.1346,-0.1367,-0.1426,-0.1459,-0.1525,-0.1536,-0.1578,-0.1639,-0.1662,-0.1682,-0.1751,-0.174,-0.1763,-0.1809,-0.184,-0.1849,-0.1858,-0.1856,-0.1864,-0.1767,-0.1767,-0.1767,0,-0.1135,-0.1186,-0.1221,-0.1274,-0.1318,-0.1359,-0.1414,-0.1456,-0.1525,-0.1559,-0.1555,-0.1653,-0.167,-0.1738,-0.1762,-0.1766,-0.1773,-0.1769,-0.1847,-0.1856,-0.1864,-0.1861,-0.1869,-0.1769,-0.1769,-0.1769,-0.1768,0,-0.1167,-0.1224,-0.125,-0.1332,-0.1381,-0.1435,-0.15,-0.1551,-0.1592,-0.1631,-0.171,-0.1735,-0.1789,-0.1802,-0.1806,-0.1878,-0.1859,-0.1848,-0.182,-0.1878,-0.1871,-0.1879,-0.1773,-0.1772,-0.1771,-0.177,0,0,-0.1129,-0.1249,-0.1265,-0.1323,-0.1422,-0.1468,-0.1547,-0.163,-0.1688,-0.1743,-0.1815,-0.1872,-0.1881,-0.1905,-0.1911,-0.1942,-0.1991,-0.1927,-0.1927,-0.1915,-0.2043,-0.1874,-0.1866,-0.1996,-0.1998,-0.2,-0.2009,0,-0.1152,-0.1252,-0.1309,-0.1417,-0.1479,-0.1553,-0.1626,-0.1705,-0.1763,-0.1839,-0.1874,-0.1941,-0.1922,-0.1951,-0.198,-0.1997,-0.2018,-0.1988,-0.2,-0.2,-0.1834,-0.1872,-0.2006,-0.2014,-0.2016,-0.2017,-0.2018,0,-0.1153,-0.1236,-0.134,-0.1478,-0.1514,-0.1583,-0.1707,-0.1781,-0.1883,-0.1927,-0.1988,-0.2015,-0.2077,-0.2047,-0.2098,-0.2082,-0.2073,-0.2072,-0.2072,-0.191,-0.1846,-0.1952,-0.2032,-0.2031,-0.203,-0.2029,-0.2028,0,-0.1096,-0.1247,-0.1333,-0.1385,-0.1547,-0.1612,-0.1693,-0.1806,-0.1876,-0.1984,-0.2032,-0.21,-0.2136,-0.2155,-0.2138,-0.2136,-0.2172,-0.2162,-0.1997,-0.1984,-0.2116,-0.2107,-0.2196,-0.2196,-0.2196,-0.2196,-0.2196,0,-0.1079,-0.1156,-0.1322,-0.138,-0.1499,-0.1608,-0.1724,-0.1808,-0.1925,-0.1995,-0.2072,-0.2108,-0.2169,-0.2184,-0.2169,-0.2088,-0.2189,-0.201,-0.1981,-0.2129,-0.2122,-0.212,-0.2111,-0.2197,-0.2197,-0.2197,-0.2196,0,-0.1003,-0.1107,-0.1227,-0.1415,-0.1475,-0.1563,-0.1739,-0.1807,-0.1925,-0.2015,-0.2051,-0.2138,-0.2138,-0.2156,-0.2174,-0.2099,-0.206,-0.2003,-0.2144,-0.2122,-0.1849,-0.1842,-0.1838,-0.1832,-0.1827,-0.1823,-0.182,0,-0.0975,-0.1023,-0.1234,-0.1308,-0.1402,-0.1545,-0.1627,-0.1785,-0.1848,-0.1999,-0.2019,-0.2072,-0.2098,-0.1974,-0.2016,-0.1959,-0.1928,-0.1904,-0.1896,-0.1843,-0.1816,-0.1817,-0.1817,-0.1812,-0.1811,-0.1809,-0.1808,0,-0.0927,-0.0999,-0.1105,-0.1247,-0.1358,-0.1482,-0.1609,-0.165,-0.1808,-0.1927,-0.1917,-0.1902,-0.1889,-0.1862,-0.1816,-0.1782,-0.1926,-0.1853,-0.1863,-0.1855,-0.1811,-0.1789,-0.1795,-0.1791,-0.1793,-0.1795,-0.1796,0,-0.0879,-0.0934,-0.1052,-0.1172,-0.1299,-0.1379,-0.1473,-0.1537,-0.1618,-0.1775,-0.1757,-0.1796,-0.1862,-0.1768,-0.1734,-0.1675,-0.1655,-0.1611,-0.1634,-0.1653,-0.1585,-0.1502,-0.1364,0,0,0,0,0,-0.0825,-0.0864,-0.0965,-0.1094,-0.1206,-0.1278,-0.1437,-0.1524,-0.1673,-0.1612,-0.1681,-0.1648,-0.1588,-0.1611,-0.1507,-0.1661,-0.1672,-0.1536,-0.1637,-0.1697,-0.1717,-0.1651,0,0,0,0,0,0,-0.0784,-0.0862,-0.0924,-0.0987,-0.1044,-0.1157,-0.1252,-0.1359,-0.1341,-0.1477,-0.1441,-0.153,-0.1486,-0.1593,-0.1458,-0.1466,-0.1494,-0.1566,-0.1561,-0.1686,-0.1704,-0.1719,-0.1659,0,0,0,0,0]},{"header":{"parameterUnit":"m.s-1","parameterCategory":2,"la1":30.2991,"la2":30.254,"lo1":-89.0895,"lo2":-89.0444,"dy":0.0017,"dx":0.0017,"nx":28,"ny":28,"refTime":"2024-10-20T21:00:00:Z","depth":"4","parameterNumber":3,"parameterNumberName":"V-component_of_CURRENTS"},"data":[0,0,0,0,0,0,0,0,0,0,0,0,0,0,0,0,0,0,0,0,0,0,0,0,0,0,0,0,0,0,0,0,0,0,0,0,0,0,0,0,0,0,0,0,0,0,0,0,0,0,0,0,0,0,0,0,0,0,-0.0207,-0.0207,0,-0.0171,-0.017,-0.0169,-0.0135,-0.0135,-0.0135,-0.0135,-0.0057,-0.0055,-0.0053,0,0,0,0,0,0,0,0,0,0,0,0,0,-0.0199,-0.02,-0.0207,-0.0207,-0.0207,-0.0171,-0.017,-0.0169,-0.0135,-0.0135,-0.0135,-0.0135,-0.0058,-0.0055,-0.0053,0,0,0,0,0,0,0,0,0,0,0,0,0,-0.0185,-0.02,-0.0207,-0.0187,-0.0185,-0.0171,-0.017,-0.0169,-0.0136,-0.0135,-0.0135,-0.0135,-0.0058,-0.0056,-0.0053,-0.0041,0,0,-0.0044,-0.0043,0,0,0,0,0,0,0,0,-0.0186,-0.0185,-0.019,-0.0189,-0.0186,-0.0159,-0.0139,-0.0125,-0.0136,-0.0152,-0.0135,-0.0135,-0.0089,-0.0084,-0.0075,-0.0037,-0.0034,-0.0044,-0.0042,-0.0041,-0.004,0,0,0,0,0,0,0,-0.0187,-0.0186,-0.019,-0.019,-0.0188,-0.0164,-0.0162,-0.0136,-0.012,-0.015,-0.0148,-0.0148,-0.0087,-0.0078,-0.0073,-0.0033,-0.0044,-0.0041,-0.004,-0.0039,0.0024,0.0024,0,0,0,0,0,0,-0.0199,-0.0187,-0.0191,-0.0189,-0.0188,-0.0165,-0.0162,-0.0166,-0.0121,-0.0115,-0.0149,-0.0147,-0.0083,-0.0076,-0.007,-0.0055,-0.0041,-0.0038,-0.0037,0.0024,0.0024,0.0024,0,0,0,0,0,0,-0.0199,-0.02,-0.0193,-0.0189,-0.0187,-0.0166,-0.017,-0.0166,-0.0158,-0.0121,-0.0113,-0.0146,-0.0082,-0.0074,-0.0052,-0.0052,-0.0037,-0.0034,0.0024,0.0024,0.0024,-0.0025,0,0,0,0,0,0,-0.0199,-0.02,-0.0208,-0.019,-0.0187,-0.0192,-0.0171,-0.0165,-0.016,-0.0157,-0.0116,-0.0108,-0.0081,-0.0057,-0.005,-0.0048,-0.0032,0.0024,0.0024,0.0024,-0.0023,-0.0026,-0.0029,0,0,0,0,0,-0.0199,-0.0212,-0.0208,-0.0209,-0.0199,-0.0193,-0.0189,-0.0171,-0.016,-0.0162,-0.0134,-0.011,-0.0052,-0.0055,-0.0046,-0.0043,0.0025,0.0024,0.0024,-0.0022,-0.0026,-0.0029,0,0,0,0,0,0,-0.021,-0.021,-0.0205,-0.0217,-0.021,-0.0188,-0.0189,-0.0176,-0.0155,-0.0151,-0.0113,-0.0103,-0.0084,-0.0058,-0.0062,-0.0025,-0.0009,-0.0007,-0.0046,-0.005,-0.0053,-0.0046,-0.003,0,0,0,0,0,-0.0218,-0.0231,-0.0221,-0.0231,-0.0229,-0.0209,-0.0205,-0.0194,-0.0174,-0.0165,-0.0136,-0.0104,-0.0077,-0.0061,-0.0034,-0.0015,0.0026,-0.0006,-0.0009,-0.0012,-0.0,0.006,0.0063,0.0024,0.0024,0.0024,0,0,-0.0227,-0.0228,-0.0236,-0.0235,-0.0226,-0.0227,-0.0205,-0.0203,-0.0198,-0.0159,-0.0142,-0.0116,-0.0076,-0.0056,-0.0044,-0.0033,0.0018,-0.0012,-0.0015,-0.0001,0.006,0.0064,0.0068,0.0024,0.0024,0.0024,0,0,-0.0249,-0.025,-0.0265,-0.0263,-0.0257,-0.0243,-0.0246,-0.0227,-0.0213,-0.0199,-0.0167,-0.0139,-0.0104,-0.007,-0.0049,-0.0052,-0.0004,-0.0048,-0.0053,0.0004,0.0008,0.0012,0.0056,0.0065,-0.0046,-0.0046,-0.0046,0,-0.0256,-0.0276,-0.0268,-0.0278,-0.0279,-0.0254,-0.0264,-0.0245,-0.0221,-0.0205,-0.0201,-0.0134,-0.0107,-0.0065,-0.0068,-0.0058,-0.0021,-0.0046,0.0,0.0006,0.0011,0.0055,0.0065,-0.0048,-0.0048,-0.0048,-0.0048,0,-0.0291,-0.0301,-0.0309,-0.0314,-0.0312,-0.0318,-0.0296,-0.0283,-0.0264,-0.024,-0.0201,-0.016,-0.0118,-0.0107,-0.0089,-0.0041,-0.0027,-0.0015,0.0009,0.0012,0.0058,0.0069,-0.0052,-0.0051,-0.005,-0.005,0,0,-0.0311,-0.033,-0.0332,-0.0342,-0.0333,-0.0337,-0.0322,-0.0301,-0.0287,-0.0251,-0.0224,-0.0175,-0.0147,-0.012,-0.0088,-0.0036,0.0019,-0.0014,-0.001,0.0028,0.0141,0.0114,0.0124,0.0039,0.0041,0.0043,0.0154,0,-0.0335,-0.0372,-0.0368,-0.039,-0.0403,-0.0377,-0.0369,-0.0344,-0.031,-0.0276,-0.0214,-0.018,-0.0153,-0.0136,-0.0079,-0.0007,0.0049,-0.0012,0.0136,0.014,0.0115,0.0137,0.0049,0.0162,0.0165,0.0167,0.0169,0,-0.0367,-0.0386,-0.0421,-0.0432,-0.0435,-0.0442,-0.0422,-0.041,-0.0348,-0.0321,-0.0262,-0.0212,-0.0134,-0.0115,0.003,-0.0011,0.0064,0.0125,0.0131,0.0135,0.0135,0.0165,0.019,0.0188,0.0187,0.0185,0.0184,0,-0.0395,-0.042,-0.0453,-0.0459,-0.0465,-0.047,-0.0468,-0.0425,-0.0415,-0.0343,-0.0322,-0.022,-0.0174,-0.0058,0.0062,0.0051,0.0225,0.0224,0.0277,0.0276,0.0288,0.0283,0.034,0.034,0.034,0.0339,0.0339,0,-0.0423,-0.0445,-0.0473,-0.0491,-0.0526,-0.0511,-0.0526,-0.0501,-0.0461,-0.0441,-0.035,-0.0301,-0.0155,-0.0042,0.0068,0.0206,0.0234,0.0289,0.0309,0.0262,0.0252,0.0295,0.0289,0.0343,0.0342,0.0342,0.0341,0,-0.0443,-0.0463,-0.0504,-0.0531,-0.0544,-0.0569,-0.0588,-0.0591,-0.0541,-0.0508,-0.0487,-0.0356,-0.0207,-0.0059,0.0132,0.0202,0.0342,0.0386,0.0323,0.0335,0.0353,0.0342,0.0455,0.0455,0.0455,0.0455,0.0455,0,-0.0453,-0.0478,-0.0543,-0.0584,-0.0601,-0.0638,-0.0665,-0.064,-0.0635,-0.0533,-0.0515,-0.0367,-0.0267,-0.0007,0.0138,0.0348,0.0371,0.0433,0.0399,0.036,0.0368,0.0358,0.0347,0.0456,0.0456,0.0456,0.0456,0,-0.0467,-0.0499,-0.0541,-0.0631,-0.0682,-0.0729,-0.0756,-0.0756,-0.0703,-0.0659,-0.0514,-0.0364,-0.0198,-0.0004,0.0154,0.0303,0.0385,0.0434,0.0435,0.0403,0.0362,0.0368,0.0357,0.0456,0.0456,0.0456,0.0456,0,-0.0474,-0.0522,-0.0594,-0.0668,-0.0747,-0.0798,-0.0804,-0.0774,-0.0751,-0.0623,-0.0572,-0.0365,-0.024,-0.0025,0.0127,0.0261,0.0287,0.0316,0.0323,0.0324,0.0243,0.0168,0.0233,0,0,0,0,0,-0.0473,-0.0543,-0.0626,-0.072,-0.0802,-0.0842,-0.0858,-0.0845,-0.0787,-0.069,-0.0624,-0.0454,-0.0199,-0.0078,0.0053,0.0095,0.0279,0.0247,0.0307,0.0458,0.0458,0.038,0,0,0,0,0,0,-0.048,-0.0566,-0.0628,-0.0748,-0.0819,-0.0898,-0.091,-0.0867,-0.0796,-0.0705,-0.0561,-0.0451,-0.0205,-0.0278,0.0046,0.0088,0.0138,0.0378,0.038,0.0458,0.0458,0.0458,0.0378,0,0,0,0,0]}]]